OBJECT AH, 63241

Orbit data source: Space-Track

You're viewing an Uncataloged Satellite

Recently launched and/or uncataloged satellites may have evolving metadata. Metadata may include but not limited to: Owner, Maufacturer, Bus, Motor, and Mission.

OBJECT AH, 63241 is a satellite in SSO that was launched on Sat, 15 Mar 2025 UTC via an FALCON 9 launch vehicle from the Air Force Western Test Range (AFWTR). Unknown objects in Earth's orbit typically refer to objects detected orbiting the Earth but have not yet been identified or cataloged. These objects could be anything from previously untracked satellites, spent rocket stages, debris from satellite collisions, or even natural meteoroids temporarily captured by Earth's gravity.

Loading next visibility...
Identifier
63241, 2025-052AH
Orbit
SSO
Last TLE update
9 hours ago
Origin
Flag of TBDMBRSC (TBD)
Manufacturer
MBRSC/SATREC
Mission
Operational Civil Radar Imaging
Bus & Motor
ETIHAD, Unknown motor
Mass
220 kg wet, ~200 kg dry
Launch date (UTC)
2025-03-15 (3 months ago)
Launch vehicle
FALCON 9
Launch site
Air Force Western Test Range (AFWTR)
Object type
Unknown
Shape & HBR
Box + 2 Pan, 5 m
Radar Cross Section
2.585 m², Small (<0.1 m²)

Expand to show TLE details & history

TLE from 9 hours ago
0 OBJECT AH
1 63241U 25052AH  25169.93820863  .00006961  00000-0  34055-3 0  9994
2 63241  97.4266  63.4725 0008362   8.3110 351.8261 15.18481984 14652
Epoch: 2025-06-18T22:31Z
TLE epoch observation values (Epoch: 2025-06-18T22:31:01.225Z)
Latitude
-0.00005°
Longitude
178.30433°
Altitude
507.813 km
Speed
7.613 km/s
True Right ascension
04h 13m 53s
True Declination
0° 00' 00"
Sunlit
Object was in daylight at epoch
Visualization orbit readout
Latitude
-47.70367°
Longitude
-9.52278°
Altitude
533.291 km
Speed
7.592 km/s
Apparent Right ascension
10h 42m 54s
Apparent Declination
-71° 00' 50"
Sunlit
Object is in full shadow
Visualization observer readout
Local Sidereal Time
18:16:11
Azimuth
204.934° SW
Elevation
-44.873°
Doppler factor
1
Orbital elements
Apogee altitude
513.154 km
Perigee altitude
501.639 km
Semi-major axis
6,885.533 km
Eccentricity
0.00084
Inclination
97.4266°
RAAN
63.4725°
Arg. of periapsis
8.311°
True anomaly
Unknown
Mean anomaly
351.8261°
Eccentric anomaly
Unknown
Mean motion
3.79872 °/min
Orbital period
94.77 mins
BSTAR
0.00034055
Loading maneuver chart data...
Loading SW <> Apogee altitude chart data...
Loading historical data...
Loading historical data...
Loading historical data...
Loading historical data...
Loading historical data...
Loading historical data...
Loading historical data...

OBJECT AH Visibility forecast

Observer location: undefined°, undefined°

Span
Click to sort rows by Start time (UTC) header in descending order
Start Az.
Max El. time (UTC)
Max El. Az.
Max El.
End time (UTC)
End Az.
4 mins2025-06-19 16:04:33.052Z101.2° ESE2025-06-19 16:06:33.052Z60.822° ENE17.576°2025-06-19 16:08:33.052Z26.29° NE
4 mins2025-06-19 17:38:33.052Z228.272° WSW2025-06-19 17:39:33.052Z252.014° W23.082°2025-06-19 17:42:33.052Z316.688° NNW
4 mins2025-06-20 05:09:33.052Z58.336° ENE2025-06-20 05:10:33.052Z81.962° E24.062°2025-06-20 05:13:33.052Z149.487° SSE
|